RH
20 22 29 23 18 15 16 17 18 18 16 18 20 20 19 25 23 23 26 29 33 35 34 37 36 38 44 50 54 62 63 73 82 87 87 82 82 80 70 63 61 62 64 67
19 24 20 13 14 15 17 19 18 17 15 18 22 19 17 17 26 25 30 35 34 33 34 32 37 44 44 46 52 58 65 70 78 83 86 88 92 78 75 67 71 64 70 69
19 17 13 13 15 16 19 22 23 22 16 16 18 21 19 18 26 28 33 30 28 32 38 40 38 45 44 46 51 56 64 67 76 80 85 84 83 81 82 77 72 70 68 70
17 12 12 16 17 15 22 16 18 22 22 30 22 35 24 36 67 55 51 48 40 34 28 32 33 42 42 44 47 57 61 70 73 77 82 81 91 83 80 85 79 74 74 71
17 16 16 16 17 13 16 15 16 19 23 30 28 41 47 53 66 72 62 52 47 31 31 30 32 31 37 36 40 61 62 68 64 74 83 86 88 91 89 88 86 78 75 73
15 14 16 16 12 14 12 17 20 27 31 55 35 39 57 55 62 63 57 50 42 32 29 29 32 34 37 35 42 56 61 63 70 73 71 76 84 89 93 82 80 74 72 71
18 14 11 12 18 14 17 38 67 66 60 57 31 36 55 46 46 45 46 39 33 30 29 30 34 32 33 34 44 44 62 64 65 67 71 77 87 90 91 88 80 84 76 69
27 32 15 13 16 26 25 30 82 62 78 52 33 61 54 42 36 33 34 33 31 34 32 32 36 34 36 42 50 55 58 60 67 72 80 83 83 77 74 70 74 72 66 62
37 28 14 12 12 18 33 47 48 56 58 56 43 48 46 41 41 40 38 34 35 33 33 36 31 32 40 44 58 59 62 68 71 76 80 81 78 69 70 77 75 73 72 70
38 46 18 13 14 12 25 27 49 85 72 77 48 56 62 52 49 44 43 42 38 37 34 31 33 40 41 50 57 61 68 71 74 77 81 70 68 68 64 61 65 64 68 73
25 39 29 19 20 19 28 34 34 58 78 87 89 60 45 52 50 55 47 44 38 38 32 36 35 38 44 56 58 68 75 74 77 79 73 69 70 69 67 69 68 63 68 72
33 44 53 35 22 15 18 27 38 83 60 82 87 78 36 51 46 49 54 48 32 37 35 35 38 42 53 62 68 76 78 78 79 73 69 72 70 69 70 74 73 73 77 74
42 49 50 32 25 26 30 28 25 36 53 60 90 77 32 46 50 42 47 42 31 34 39 41 47 57 65 71 73 77 80 81 76 71 77 77 74 69 72 76 74 75 77 77
49 48 53 86 55 32 35 35 31 34 62 60 70 55 55 57 49 44 41 39 41 42 41 50 59 70 74 74 76 79 80 76 74 78 81 80 74 77 76 77 80 80 81 87
44 50 48 37 30 26 27 24 20 25 32 52 44 44 61 56 51 49 42 42 41 41 45 55 65 75 78 83 83 79 78 76 80 82 84 82 79 78 82 84 85 90 92 92
48 58 54 50 36 30 27 23 24 22 20 22 27 47 46 46 43 43 44 43 42 49 50 58 65 68 79 82 82 78 79 83 83 86 85 84 85 85 89 93 94 94 95 96
55 57 64 67 42 40 49 32 29 24 21 27 39 43 43 47 41 52 52 47 53 52 57 66 72 78 85 87 82 84 87 84 89 88 89 91 88 91 92 94 94 96 98 97
45 50 60 67 57 74 39 26 22 34 43 43 41 40 44 47 49 46 48 53 54 54 69 73 81 86 89 86 82 86 86 92 90 93 95 92 91 93 94 95 97 98 98 98
44 53 60 66 68 49 37 36 44 46 62 50 47 44 41 37 37 44 42 52 57 78 80 81 83 90 89 85 89 85 95 92 94 96 96 92 94 94 94 97 98 98 97 97
38 52 59 60 73 78 52 39 34 39 89 64 47 46 42 42 61 57 53 50 68 74 77 78 80 84 86 89 86 97 97 96 97 96 95 92 94 95 97 98 98 98 97 97
60 59 63 67 69 54 59 55 39 67 81 66 46 47 48 58 54 49 58 60 72 71 70 72 77 86 90 88 97 97 96 97 97 95 92 93 95 96 97 96 97 97 96 96
61 78 83 70 74 76 60 58 72 83 68 51 47 48 48 46 43 49 49 69 72 75 73 72 79 85 92 96 97 97 97 97 94 93 96 97 96 96 96 95 96 95 95 95
59 64 80 78 83 75 69 68 73 78 69 54 47 45 46 45 45 50 50 74 74 76 78 77 81 89 89 97 97 97 98 95 96 96 97 97 97 95 95 97 96 96 95 92
41 51 58 61 76 69 68 63 65 64 46 41 37 44 43 48 49 49 65 75 76 76 81 81 86 92 96 97 96 98 97 95 97 97 98 98 98 98 98 98 98 98 98 94
49 43 47 49 49 49 58 47 44 43 41 37 36 41 39 49 49 48 74 76 76 78 82 85 94 94 97 97 97 96 94 96 97 97 98 98 98 98 98 96 97 96 97 95
40 47 51 64 51 47 53 44 37 37 40 37 43 41 49 48 50 62 77 80 78 81 83 90 86 95 98 96 96 94 94 93 96 98 98 98 98 98 97 93 92 80 85 82
Wind_Speed
10 1 3 2 4 5 5 6 7 4 7 6 4 4 5 10 7 7 8 8 8 8 6 6 7 7 6 3 3 3 2 2 1 2 3 3 4 4 7 9 14 13 10 9
2 6 3 4 3 5 6 6 7 5 5 5 3 8 9 6 8 8 10 9 7 4 4 3 5 2 4 4 4 4 1 1 1 1 2 2 1 3 4 6 6 13 11 13
3 3 3 1 3 5 5 4 3 2 6 7 5 8 10 6 13 10 8 8 6 4 3 1 2 6 4 3 4 3 3 0 2 2 1 3 3 2 3 5 5 5 10 11
3 4 4 3 5 4 4 8 10 9 7 3 4 6 6 10 10 9 8 1 5 4 3 1 4 1 3 2 1 6 4 2 1 2 1 4 2 6 5 4 4 7 7 9
8 3 5 5 2 6 4 7 5 5 5 3 11 2 2 8 6 2 6 6 8 5 2 6 3 4 5 2 3 5 5 4 1 3 3 2 4 3 3 4 7 8 8 8
8 2 1 2 4 1 5 5 7 6 3 1 12 5 2 4 7 3 2 9 8 3 6 5 5 6 3 5 2 4 4 1 3 2 4 5 6 7 5 6 7 7 7 8
9 7 5 4 3 7 6 2 4 7 4 7 4 4 3 7 9 7 7 4 5 7 6 5 5 4 6 6 4 2 6 3 3 4 6 7 7 8 7 7 7 8 8 9
5 5 10 7 4 2 4 6 6 4 1 6 8 4 2 7 7 8 7 6 7 7 3 5 4 5 5 5 4 8 5 5 6 6 6 5 5 5 8 11 9 10 11 11
4 3 7 5 4 2 4 4 9 5 4 3 2 4 4 9 7 7 5 5 7 7 4 3 5 5 6 6 7 6 7 6 6 6 6 6 6 11 12 11 10 10 12 11
1 3 5 6 2 5 3 1 1 3 3 3 5 3 3 6 5 4 6 6 7 8 5 5 7 6 5 5 5 7 6 6 6 7 6 9 13 12 14 14 15 17 14 15
3 4 8 5 6 7 1 2 2 5 6 6 3 6 6 9 6 2 5 8 9 6 6 5 5 4 5 5 6 6 7 7 6 6 9 13 13 14 14 15 15 17 15 15
3 3 3 7 10 5 4 1 5 6 4 3 6 7 8 8 9 2 3 0 8 4 5 5 5 6 7 8 8 6 5 6 6 9 14 14 15 15 15 15 16 16 15 16
1 1 2 6 7 5 2 2 4 3 4 5 6 7 7 7 3 3 5 6 5 6 7 5 8 8 8 7 6 6 7 8 11 15 14 15 15 16 16 17 16 16 16 17
7 3 4 6 3 4 5 5 8 5 4 5 7 9 5 1 5 6 6 7 6 6 7 6 8 7 6 6 7 8 10 12 15 15 14 14 16 16 16 17 17 16 15 15
6 3 1 8 8 11 12 12 10 5 6 6 9 7 2 2 2 2 6 6 7 7 7 7 7 6 6 7 8 10 12 15 14 15 14 16 16 16 16 16 16 15 14 12
3 3 2 5 11 12 14 12 12 8 7 10 8 4 5 4 2 9 7 6 5 6 7 8 7 8 7 9 9 11 14 14 14 15 15 15 16 16 16 14 13 12 11 11
7 5 3 4 6 12 9 6 9 9 7 5 5 6 10 5 8 5 3 5 6 6 7 7 7 6 8 8 10 13 14 14 15 13 15 15 16 15 14 12 11 11 10 10
3 2 2 3 4 5 8 7 12 3 13 12 9 12 8 6 6 6 4 6 6 7 8 6 6 8 7 9 12 12 13 13 14 14 14 15 15 13 12 11 11 11 10 12
6 5 1 3 4 9 14 7 5 4 5 8 9 10 9 9 7 4 7 6 8 9 6 7 8 7 7 11 12 15 12 12 13 14 14 14 13 12 11 12 12 10 10 11
8 5 6 3 2 3 2 2 6 4 3 10 12 9 9 8 5 5 6 5 12 8 8 8 9 8 10 12 14 12 12 12 13 13 12 12 12 12 11 11 10 10 9 11
2 1 7 4 4 6 7 9 5 6 4 3 5 5 5 2 4 5 5 11 10 10 11 8 11 11 11 13 11 12 11 12 12 12 10 11 12 11 11 11 11 10 11 12
6 5 3 1 2 7 3 5 6 3 8 9 6 5 6 6 7 6 7 13 12 11 12 12 11 11 12 12 11 11 11 11 10 11 11 11 12 10 10 13 12 12 11 12
5 8 8 9 8 7 4 4 8 8 8 8 3 5 4 6 6 6 7 12 10 11 10 11 11 11 12 11 11 10 11 10 9 10 12 11 11 10 11 12 11 9 11 11
4 4 4 4 4 9 8 3 6 9 6 7 4 3 5 7 7 7 12 9 9 10 11 10 11 13 12 11 11 10 10 9 9 12 11 10 11 12 11 10 9 9 9 9
2 5 3 1 3 9 7 6 7 8 7 7 5 5 8 8 7 9 9 9 9 9 10 10 11 10 10 10 8 6 9 9 9 10 10 11 9 10 11 12 9 9 10 8
3 3 3 4 5 5 5 7 8 6 3 4 6 7 8 9 8 10 8 7 8 9 9 10 12 9 8 8 8 11 7 9 10 10 8 9 9 9 8 8 8 13 12 13
Wind_Direction
230 290 275 29 8 3 316 305 316 94 153 124 143 246 267 193 181 148 159 137 120 109 136 148 190 202 165 174 208 216 243 280 9 318 325 333 320 326 338 336 325 319 310 313
301 249 74 6 34 356 319 301 298 304 33 92 145 249 245 230 179 162 118 95 97 106 141 228 268 122 144 208 231 226 350 333 275 269 283 286 299 288 290 306 328 327 350 337
207 98 131 39 215 240 283 298 293 53 357 349 325 305 268 259 115 96 99 120 134 183 202 107 46 139 187 223 200 115 138 149 258 284 308 305 309 315 313 298 308 305 320 328
319 118 1 293 314 93 335 20 11 8 20 281 50 276 311 94 53 73 82 87 295 136 107 235 85 187 206 154 183 158 136 162 223 326 325 307 285 306 280 275 278 296 301 305
261 122 156 306 89 56 258 28 345 300 287 335 296 14 243 99 62 127 154 231 288 280 28 55 29 305 83 266 247 166 151 179 324 345 9 337 301 267 269 286 290 292 293 284
258 100 345 270 19 338 298 306 296 267 186 330 249 205 275 140 163 185 215 240 260 16 49 22 14 60 321 315 15 142 163 48 69 40 312 305 294 292 301 296 296 299 303 303
265 203 171 85 304 273 201 27 331 348 38 219 330 330 221 137 146 165 195 189 21 12 27 2 43 358 328 325 10 57 65 27 347 350 344 340 338 331 325 316 310 308 303 300
259 294 162 153 215 50 291 137 146 196 39 288 333 31 359 64 59 64 56 29 5 340 324 9 17 322 318 11 45 67 49 7 12 17 14 7 347 324 310 302 299 295 296 295
2 33 54 89 59 98 329 56 164 107 18 31 235 99 47 66 36 26 345 322 302 295 323 59 338 339 18 20 50 52 35 23 6 12 1 332 343 324 310 298 292 294 293 293
300 347 223 138 173 273 212 272 49 21 127 228 313 76 202 142 154 246 319 335 325 323 350 338 10 42 10 48 53 33 45 22 10 9 348 335 322 313 306 302 294 294 293 286
152 151 286 133 192 204 175 258 200 131 135 168 192 268 184 193 171 162 271 310 293 313 343 32 29 10 33 55 38 30 31 12 1 347 330 325 314 307 305 299 295 294 288 280
147 133 264 271 298 164 130 262 127 121 267 190 155 263 278 154 180 101 83 226 277 329 42 42 18 18 34 34 26 26 1 354 347 336 329 320 313 309 307 299 296 294 289 284
123 356 352 300 329 28 60 307 236 183 120 203 142 261 228 99 101 199 225 266 353 10 12 5 28 33 44 22 0 358 1 358 343 332 326 317 315 314 307 301 297 294 288 283
76 107 157 201 292 298 293 268 256 198 140 223 219 258 68 25 59 10 5 3 16 16 4 32 31 40 21 17 11 2 359 346 335 329 319 317 319 312 307 303 300 297 291 284
107 155 321 294 306 308 299 296 282 258 234 174 241 248 168 156 130 312 45 29 25 356 21 28 40 20 14 19 15 1 345 338 334 327 329 322 318 315 312 309 305 300 300 298
124 204 208 291 301 292 288 280 281 277 267 265 266 137 117 31 10 51 44 30 347 23 28 35 34 23 31 27 3 350 343 340 336 330 326 331 323 320 317 314 318 321 319 316
139 152 166 242 304 322 306 276 296 286 242 77 356 118 124 101 72 97 13 350 52 34 46 45 37 34 44 20 2 350 345 339 331 335 335 329 325 324 327 331 339 342 344 345
120 100 141 246 308 253 249 266 282 55 51 35 55 74 84 93 95 92 14 54 51 44 61 44 39 51 39 14 359 353 347 336 337 341 336 333 329 335 343 349 356 355 8 20
182 156 203 183 228 281 306 327 16 91 69 17 49 49 42 18 19 345 12 78 67 90 79 57 75 63 39 13 3 355 341 337 344 339 340 336 341 351 355 359 10 8 26 37
215 165 156 206 253 269 266 11 55 64 67 5 17 34 28 33 30 282 346 39 88 73 64 59 62 55 34 12 1 348 339 346 346 338 339 345 356 2 3 6 13 18 28 44
94 163 189 190 203 265 356 1 334 71 317 230 126 49 31 37 208 262 44 65 78 71 54 51 58 51 27 7 355 348 349 356 341 337 2 5 7 12 14 17 24 30 41 46
183 163 193 102 265 249 317 48 96 221 7 6 31 34 12 340 339 44 21 89 72 62 49 45 49 39 20 7 354 349 8 345 359 13 15 10 19 23 22 30 29 31 39 48
212 191 168 165 198 177 220 174 154 173 169 196 63 14 356 348 350 40 30 90 76 67 57 53 49 35 20 4 350 1 3 358 16 24 25 23 23 32 36 36 37 39 39 49
20 85 102 97 137 179 193 189 160 201 194 91 58 332 11 2 51 36 82 78 70 64 58 54 49 35 19 2 7 21 0 19 22 35 28 26 37 40 41 46 39 38 38 45
202 58 77 26 103 98 160 126 95 63 58 52 15 34 28 59 31 62 88 85 74 72 72 61 55 39 24 2 14 17 24 18 38 40 35 36 35 40 52 52 42 51 43 46
95 195 122 155 127 108 108 117 117 100 66 37 70 40 62 52 45 82 84 90 87 82 81 72 61 49 17 6 3 38 31 37 45 47 37 42 46 48 49 51 44 32 39 39